STARLINK-1732

Last updated on Fri Nov 06 2020 00:02:03 GMT+0000 (Coordinated Universal Time)

1 46584U 20070BE 20310.83334491 -.00042507 00000-0 -45965-3 0 9999 2 46584 53.0020 292.9166 0000857 97.0487 10.4651 15.62817902 5271

Satellite not in orbit

STARLINK-1732